Location: Prague
(50.0830°N, 14.4670°E)
Time: 00:14:33
(UTC+02:00)

Envisat - Pass Details

Date: 05 October 2021
Orbit: 764 x 766 km, 98.2° (Epoch: 20 October)

Event Time Altitude Azimuth Distance (km) Brightness Sun altitude
Rises 06:22:53 0° 14° (NNE) 3,243 6.5 -8.1°
Reaches altitude 10° 06:25:12 10° 15° (NNE) 2,313 5.7 -7.8°
Maximum altitude 06:30:19 88° 105° (ESE) 772 3.1 -6.9°
Drops below altitude 10° 06:35:23 10° 195° (SSW) 2,295 5.3 -6.1°
Sets 06:37:40 0° 196° (SSW) 3,217 6.1 -5.8°
